When you browse on this site, cookies collect data to enhance your experience and personalize the content and advertising you see.
Visit our Privacy Policy to learn more. By continuing to use the site, you agree to this use of cookies and data.
  • In Latvia
  • List of Countries
  • For 7 days
  • Water Temperature
  • Weather Map
  • Weather Widgets
  • user-avatar
    Login

    Hourly Weather Salem

    Today, 22 October, Tuesday

    Time Temperature Precipitation Wind Pressure Humidity
    00:00 +14°C° 0.1 mm 4 mps 764 mmHg 89%
    01:00 +14°C° 0.1 mm 4 mps 764 mmHg 90%
    02:00 +14°C° 0.5 mm 4 mps 764 mmHg 91%
    03:00 +14°C° 0.5 mm 3 mps 764 mmHg 92%
    04:00 +14°C° 0.5 mm 3 mps 764 mmHg 93%
    05:00 +14°C° 0.8 mm 3 mps 764 mmHg 94%
    06:00 +14°C° 0.8 mm 3 mps 765 mmHg 95%
    07:00 +15°C° 0.8 mm 2 mps 765 mmHg 95%
    08:00 +16°C° 0 mm 2 mps 765 mmHg 93%
    09:00 +17°C° 0 mm 2 mps 765 mmHg 90%
    10:00 +18°C° 0 mm 2 mps 766 mmHg 87%
    11:00 +19°C° 0 mm 1 mps 766 mmHg 81%
    12:00 +20°C° 0 mm 1 mps 766 mmHg 75%
    13:00 +20°C° 0 mm 1 mps 766 mmHg 69%
    14:00 +20°C° 0 mm 1 mps 766 mmHg 71%
    15:00 +19°C° 0 mm 1 mps 766 mmHg 72%
    16:00 +19°C° 0 mm 1 mps 766 mmHg 73%
    17:00 +16°C° 0 mm 1 mps 766 mmHg 77%
    18:00 +14°C° 0 mm 1 mps 766 mmHg 81%
    19:00 +13°C° 0 mm 1 mps 766 mmHg 84%
    20:00 +12°C° 0 mm 1 mps 766 mmHg 85%
    21:00 +12°C° 0 mm 1 mps 766 mmHg 86%
    22:00 +11°C° 0 mm 1 mps 766 mmHg 87%
    23:00 +10°C° 0 mm 1 mps 766 mmHg 87%

    Tomorrow, 23 October, Wednesday

    Time Temperature Precipitation Wind Pressure Humidity
    00:00 +10°C° 0 mm 1 mps 766 mmHg 88%
    01:00 +9°C° 0 mm 1 mps 766 mmHg 89%
    02:00 +9°C° 0 mm 1 mps 766 mmHg 89%
    03:00 +8°C° 0 mm 1 mps 766 mmHg 89%
    04:00 +8°C° 0 mm 1 mps 766 mmHg 89%
    05:00 +8°C° 0 mm 1 mps 766 mmHg 89%
    06:00 +7°C° 0 mm 1 mps 766 mmHg 89%
    07:00 +7°C° 0 mm 1 mps 766 mmHg 88%
    08:00 +9°C° 0 mm 1 mps 766 mmHg 82%
    09:00 +11°C° 0 mm 1 mps 766 mmHg 76%
    10:00 +13°C° 0 mm 2 mps 766 mmHg 69%
    11:00 +14°C° 0 mm 2 mps 766 mmHg 66%
    12:00 +15°C° 0 mm 2 mps 766 mmHg 62%
    13:00 +16°C° 0 mm 2 mps 766 mmHg 58%
    14:00 +16°C° 0 mm 2 mps 765 mmHg 60%
    15:00 +16°C° 0 mm 2 mps 765 mmHg 62%
    16:00 +15°C° 0 mm 2 mps 765 mmHg 63%
    17:00 +14°C° 0 mm 2 mps 765 mmHg 69%
    18:00 +12°C° 0 mm 2 mps 765 mmHg 75%
    19:00 +11°C° 0 mm 1 mps 766 mmHg 81%
    20:00 +10°C° 0 mm 1 mps 766 mmHg 83%
    21:00 +10°C° 0 mm 1 mps 766 mmHg 85%
    22:00 +9°C° 0 mm 1 mps 766 mmHg 87%
    23:00 +9°C° 0 mm 1 mps 766 mmHg 87%

    Day after tomorrow, 24 October, Thursday

    Time Temperature Precipitation Wind Pressure Humidity
    00:00 +9°C° 0 mm 1 mps 766 mmHg 88%
    01:00 +9°C° 0 mm 1 mps 765 mmHg 88%
    02:00 +8°C° 0 mm 1 mps 765 mmHg 88%
    03:00 +8°C° 0 mm 1 mps 765 mmHg 87%
    04:00 +8°C° 0 mm 1 mps 765 mmHg 87%
    05:00 +8°C° 0 mm 1 mps 765 mmHg 87%
    06:00 +8°C° 0 mm 1 mps 765 mmHg 87%
    07:00 +8°C° 0 mm 1 mps 765 mmHg 86%
    08:00 +10°C° 0 mm 1 mps 765 mmHg 78%
    09:00 +12°C° 0 mm 1 mps 764 mmHg 69%
    10:00 +14°C° 0 mm 2 mps 764 mmHg 60%
    11:00 +16°C° 0 mm 2 mps 763 mmHg 56%
    12:00 +17°C° 0 mm 2 mps 763 mmHg 52%
    13:00 +19°C° 0 mm 2 mps 762 mmHg 48%
    14:00 +19°C° 0 mm 2 mps 762 mmHg 50%
    15:00 +18°C° 0 mm 2 mps 761 mmHg 53%
    16:00 +18°C° 0 mm 2 mps 761 mmHg 56%
    17:00 +17°C° 0 mm 2 mps 761 mmHg 60%
    18:00 +15°C° 0 mm 2 mps 761 mmHg 64%
    19:00 +13°C° 0 mm 1 mps 761 mmHg 69%
    20:00 +13°C° 0 mm 1 mps 761 mmHg 70%
    21:00 +12°C° 0 mm 1 mps 761 mmHg 72%
    22:00 +12°C° 0 mm 1 mps 761 mmHg 73%
    23:00 +12°C° 0 mm 1 mps 760 mmHg 74%

    25 October, Friday

    Time Temperature Precipitation Wind Pressure Humidity
    00:00 +11°C° 0 mm 1 mps 760 mmHg 75%
    01:00 +10°C° 0 mm 0 mps 760 mmHg 76%
    02:00 +10°C° 0 mm 0 mps 760 mmHg 77%
    03:00 +9°C° 0 mm 0 mps 760 mmHg 78%
    04:00 +9°C° 0 mm 0 mps 760 mmHg 79%
    05:00 +9°C° 0 mm 0 mps 760 mmHg 80%
    06:00 +9°C° 0 mm 0 mps 760 mmHg 81%
    07:00 +9°C° 0 mm 0 mps 760 mmHg 82%
    08:00 +11°C° 0 mm 0 mps 760 mmHg 75%
    09:00 +13°C° 0 mm 0 mps 760 mmHg 67%
    10:00 +18°C° 0 mm 1 mps 760 mmHg 60%
    11:00 +19°C° 0 mm 1 mps 760 mmHg 58%
    12:00 +20°C° 0 mm 1 mps 760 mmHg 55%
    13:00 +22°C° 0 mm 1 mps 760 mmHg 53%
    14:00 +21°C° 0 mm 1 mps 760 mmHg 58%
    15:00 +20°C° 0 mm 1 mps 760 mmHg 63%
    16:00 +19°C° 0 mm 2 mps 760 mmHg 69%
    17:00 +17°C° 0 mm 2 mps 761 mmHg 72%
    18:00 +16°C° 0 mm 3 mps 762 mmHg 76%
    19:00 +14°C° 0 mm 4 mps 762 mmHg 80%
    20:00 +12°C° 0 mm 3 mps 763 mmHg 80%
    21:00 +10°C° 0 mm 2 mps 763 mmHg 80%
    22:00 +9°C° 0 mm 2 mps 764 mmHg 80%
    23:00 +9°C° 0 mm 1 mps 764 mmHg 83%

    26 October, Saturday

    Time Temperature Precipitation Wind Pressure Humidity
    00:00 +8°C° 0 mm 1 mps 764 mmHg 85%
    01:00 +7°C° 0 mm 1 mps 765 mmHg 88%
    02:00 +7°C° 0 mm 1 mps 765 mmHg 88%
    03:00 +7°C° 0 mm 1 mps 765 mmHg 88%
    04:00 +7°C° 0 mm 1 mps 765 mmHg 88%
    05:00 +6°C° 0 mm 1 mps 766 mmHg 88%
    06:00 +5°C° 0 mm 0 mps 766 mmHg 88%
    07:00 +5°C° 0 mm 0 mps 766 mmHg 87%
    08:00 +7°C° 0 mm 0 mps 766 mmHg 79%
    09:00 +10°C° 0 mm 1 mps 765 mmHg 70%
    10:00 +12°C° 0 mm 1 mps 765 mmHg 61%
    11:00 +13°C° 0 mm 1 mps 765 mmHg 59%
    12:00 +14°C° 0 mm 2 mps 765 mmHg 56%
    13:00 +13°C° 0 mm 3 mps 764 mmHg 54%
    14:00 +13°C° 0 mm 3 mps 764 mmHg 55%
    15:00 +13°C° 0 mm 3 mps 764 mmHg 56%
    16:00 +12°C° 0 mm 3 mps 764 mmHg 58%
    17:00 +11°C° 0 mm 3 mps 764 mmHg 63%
    18:00 +9°C° 0 mm 3 mps 764 mmHg 69%
    19:00 +8°C° 0 mm 3 mps 765 mmHg 74%
    20:00 +7°C° 0 mm 3 mps 765 mmHg 73%
    21:00 +7°C° 0 mm 3 mps 765 mmHg 73%
    22:00 +7°C° 0 mm 3 mps 766 mmHg 72%
    23:00 +7°C° 0 mm 3 mps 765 mmHg 68%

    27 October, Sunday

    Time Temperature Precipitation Wind Pressure Humidity
    00:00 +7°C° 0 mm 3 mps 765 mmHg 65%
    01:00 +5°C° 0 mm 4 mps 765 mmHg 61%
    02:00 +5°C° 0 mm 4 mps 765 mmHg 57%
    03:00 +5°C° 0 mm 4 mps 765 mmHg 54%
    04:00 +5°C° 0 mm 4 mps 764 mmHg 51%
    05:00 +5°C° 0 mm 4 mps 764 mmHg 51%
    06:00 +4°C° 0 mm 3 mps 764 mmHg 51%
    07:00 +4°C° 0 mm 3 mps 764 mmHg 52%
    08:00 +7°C° 0 mm 3 mps 763 mmHg 48%
    09:00 +9°C° 0 mm 3 mps 763 mmHg 44%
    10:00 +11°C° 0 mm 3 mps 763 mmHg 40%
    11:00 +13°C° 0 mm 3 mps 762 mmHg 37%
    12:00 +14°C° 0 mm 4 mps 761 mmHg 35%
    13:00 +17°C° 0 mm 4 mps 760 mmHg 32%
    14:00 +15°C° 0 mm 4 mps 760 mmHg 35%
    15:00 +14°C° 0 mm 4 mps 759 mmHg 39%
    16:00 +14°C° 0 mm 4 mps 759 mmHg 42%
    17:00 +12°C° 0 mm 3 mps 759 mmHg 46%
    18:00 +10°C° 0 mm 3 mps 759 mmHg 50%
    19:00 +8°C° 0 mm 2 mps 759 mmHg 55%
    20:00 +7°C° 0 mm 2 mps 759 mmHg 56%
    21:00 +6°C° 0 mm 2 mps 759 mmHg 57%
    22:00 +6°C° 0 mm 2 mps 759 mmHg 59%
    23:00 +5°C° 0 mm 2 mps 759 mmHg 60%

    28 October, Monday

    Time Temperature Precipitation Wind Pressure Humidity
    00:00 +5°C° 0 mm 2 mps 759 mmHg 61%
    01:00 +5°C° 0 mm 1 mps 759 mmHg 63%
    02:00 +5°C° 0 mm 1 mps 759 mmHg 64%
    03:00 +5°C° 0 mm 1 mps 759 mmHg 65%
    04:00 +4°C° 0 mm 1 mps 759 mmHg 66%
    05:00 +4°C° 0 mm 1 mps 759 mmHg 66%
    06:00 +4°C° 0 mm 1 mps 759 mmHg 67%
    07:00 +3°C° 0 mm 1 mps 759 mmHg 67%
    08:00 +6°C° 0 mm 1 mps 759 mmHg 61%
    09:00 +7°C° 0 mm 2 mps 759 mmHg 55%
    10:00 +9°C° 0 mm 2 mps 758 mmHg 48%
    11:00 +10°C° 0 mm 2 mps 758 mmHg 46%
    12:00 +13°C° 0 mm 2 mps 758 mmHg 44%
    13:00 +13°C° 0 mm 3 mps 757 mmHg 42%
    14:00 +14°C° 0 mm 2 mps 757 mmHg 45%
    15:00 +14°C° 0 mm 2 mps 757 mmHg 47%
    16:00 +13°C° 0 mm 2 mps 757 mmHg 50%
    17:00 +12°C° 0 mm 1 mps 757 mmHg 54%
    18:00 +10°C° 0 mm 1 mps 757 mmHg 57%
    19:00 +8°C° 0 mm 1 mps 757 mmHg 61%
    20:00 +7°C° 0 mm 1 mps 758 mmHg 62%
    21:00 +7°C° 0 mm 1 mps 758 mmHg 63%
    22:00 +6°C° 0 mm 1 mps 758 mmHg 64%
    23:00 +6°C° 0 mm 1 mps 758 mmHg 65%
    Show more